Regional Weather Roundup
Issued by NWS

Home | Current Version | Previous Version | Graphics & Text | Print | Product List | Glossary On
Versions: 1 2 3 4 5 6 7 8 9 10 11 12 13 14 15 16 17 18 19 20 21 22 23 24 25 26 27 28 29 30 31 32 33 34 35 36 37 38 39 40 41 42 43 44 45 46 47 48 49 50
000
ASUS43 KDMX 291807
RWRIA

WEATHER ROUNDUP FOR IOWA
NATIONAL WEATHER SERVICE DES MOINES IA
100 PM CDT SUN MAR 29 2015

NOTE: "FAIR" INDICATES FEW OR NO CLOUDS BELOW 12,000 FEET WITH NO
SIGNIFICANT WEATHER AND/OR OBSTRUCTIONS TO VISIBILITY.

* - THESE STATIONS ARE NOT NWS STATIONS...THUS NOT UNDER NWS
QUALITY CONTROL.  THEY ALSO DO NOT REPORT WEATHER SUCH
AS PRECIPITATION OR FOG.

IAZ001>003-012>014-020>022-031>034-043>046-291900-
   NORTHWEST IOWA

CITY           SKY/WX    TMP DP  RH WIND       PRES   REMARKS
CARROLL *      CLOUDY    50  39  66 NW29G44   29.92R
CHEROKEE *     CLOUDY    50  38  64 NW20G28   29.94R
DENISON *      CLOUDY    50  39  66 NW29      29.95R
LE MARS *      CLOUDY    50  37  62 NW23G36   29.98R
ORANGE CITY *  PTSUNNY   54  37  54 NW25G37   29.94R
SHELDON *      PTSUNNY   52  37  58 NW29G44   29.90R
SIOUX CITY     CLOUDY    50  37  61 NW30G41   29.98R
6HR MIN TEMP:  40; 6HR MAX TEMP:  56; 6HR PCP: TRACE;

SPENCER        CLOUDY    54  37  52 NW36G44   29.89R
6HR MIN TEMP:  41; 6HR MAX TEMP:  56;

STORM LAKE *   CLOUDY    50  37  62 NW32      29.91R
$$

IAZ055>058-069>071-079>083-090>094-291900-
   SOUTHWEST IOWA

CITY           SKY/WX    TMP DP  RH WIND       PRES   REMARKS
ATLANTIC *     PTSUNNY   59  39  47 NW31G44   29.95R
AUDUBON *      SUNNY     52  39  62 NW18G32   29.95R
CLARINDA *     CLOUDY    63  39  42 NW23G32   29.97R
COUNCIL BLFS * CLOUDY    54  41  62 NW26G38   29.99R
CRESTON *      CLOUDY    59  39  47 NW30G37   29.91S
HARLAN  *      CLOUDY    52  39  62 NW31G38   30.01R
LAMONI         MOSUNNY   60  41  49 W20       29.92S
6HR MIN TEMP:  38; 6HR MAX TEMP:  60; 6HR PCP: TRACE;

RED OAK *      MOSUNNY   61  39  44 NW25G40   29.96R
SHENANDOAH *   PTSUNNY   61  39  44 NW21G29   29.98R
$$

IAZ047>049-059>061-072>074-084-291900-
   CENTRAL IOWA

CITY           SKY/WX    TMP DP  RH WIND       PRES   REMARKS
AMES           CLOUDY    58  38  47 W26G40    29.83R
6HR MIN TEMP:  37; 6HR MAX TEMP:  60;

ANKENY *       CLOUDY    59  39  47 W21G29    29.85S
CHARITON *     MOSUNNY   57  41  54 W24G37    29.88F
DES MOINES     CLOUDY    59  38  45 W25G33    29.86F
6HR MIN TEMP:  39; 6HR MAX TEMP:  59;

GRINNELL*      PTSUNNY   57  41  54 W22G32    29.83F
KNOXVILLE *    PTSUNNY   59  41  51 W22G31    29.86S
MARSHALLTOWN   PTSUNNY   59  40  49 W24G36    29.79F
6HR MIN TEMP:  34; 6HR MAX TEMP:  60;

PELLA *        MOSUNNY   58  45  61 W23G32    29.87F
PERRY *        CLOUDY    57  41  54 W33G46    29.89R
$$

IAZ004>006-015-016-023>025-035-036-291900-
   NORTH CENTRAL IOWA

CITY           SKY/WX    TMP DP  RH WIND       PRES   REMARKS
ALGONA *       CLOUDY    50  39  66 NW32G41   29.84R
CLARION *      CLOUDY    54  43  66 NW29G41   29.82R
ESTHERVILLE    PTSUNNY   49  38  65 NW37G43   29.84R
6HR MIN TEMP:  37; 6HR MAX TEMP:  53;

FORT DODGE *   CLOUDY    54  39  58 W20G29    29.86R
MASON CITY     CLOUDY    49  42  77 NW25G38   29.78R
6HR MIN TEMP:  34; 6HR MAX TEMP:  56; 6HR PCP: TRACE;

FOREST CITY *  CLOUDY    46  37  71 NW25G38   29.79R
IOWA FALLS *   CLOUDY    56  40  54 W33G40    29.80R
$$

IAZ007>011-017>019-026>030-037>042-050>054-066-291900-
   NORTHEAST IOWA

CITY           SKY/WX    TMP DP  RH WIND       PRES   REMARKS
CEDAR RAPIDS   MOSUNNY   53  43  68 SW24      29.80F
6HR MIN TEMP:  32; 6HR MAX TEMP:  53; 6HR PCP:  0.04;

CHARLES CITY * CLOUDY    54  43  66 W28G36    29.73R
CLINTON *      PTSUNNY   39  34  81 SW21      29.88F WCI  29
DECORAH *      MOSUNNY   50  43  76 W16G24    29.68F
DUBUQUE        CLOUDY    38  35  89 SW18      29.78F WCI  28
6HR MIN TEMP:  31; 6HR MAX TEMP:  38; 6HR PCP:  0.10;

MONTICELLO *   PTSUNNY   46  43  87 SW20G25   29.79F
OELWEIN *      CLOUDY    54  43  66 W22G30    29.73F
WATERLOO       PTSUNNY   59  40  49 W24G39    29.75F
6HR MIN TEMP:  33; 6HR MAX TEMP:  59;

$$

IAZ064-065-067-068-078-291900-
   EAST CENTRAL IOWA

CITY           SKY/WX    TMP DP  RH WIND       PRES   REMARKS
DAVENPORT      PTSUNNY   44  34  67 SW20G32   29.85F
6HR MIN TEMP:  33; 6HR MAX TEMP:  44; 6HR PCP:  0.07;

IOWA CITY      MOSUNNY   51  41  68 SW21G30   29.85F
6HR MIN TEMP:  33; 6HR MAX TEMP:  51; 6HR PCP:  0.05;

MT. PLEASANT * PTSUNNY   48  40  71 SW21G28   29.89F
MUSCATINE *    MOSUNNY   50  39  66 SW21G30   29.87F
QUAD CITIES    PTSUNNY   43  34  70 SW21G30   29.87F
6HR MIN TEMP:  32; 6HR MAX TEMP:  44; 6HR PCP:  0.06;

$$

IAZ062-063-075>077-085>089-095>099-291900-
   SOUTHEAST IOWA

CITY           SKY/WX    TMP DP  RH WIND       PRES   REMARKS
BURLINGTON     PTSUNNY   48  38  68 SW15      29.90F
6HR MIN TEMP:  34; 6HR MAX TEMP:  48; 6HR PCP:  0.08;

FAIRFIELD *    SUNNY     52  41  66 SW18G24   29.87S
FORT MADISON * SUNNY     48  39  71 SW20      29.91F
KEOKUK *       SUNNY     50  37  62 SW20G28   29.91S
OSKALOOSA *      N/A     55  42  60 W23       29.86S
CENTERVILLE *  SUNNY     54  41  62 SW18      29.91S
OTTUMWA        SUNNY     56  40  55 SW18G26   29.87S
6HR MIN TEMP:  35; 6HR MAX TEMP:  56; 6HR PCP:  0.03;

WASHINGTON *   SUNNY     52  45  76 SW20G28   29.86S
$$

ABBREVIATIONS USED IN REMARKS
   TC - TEMPERATURES IN CELSIUS
  WCI - WIND CHILL INDEX
   HX - HEAT INDEX
  VSB - VISIBILITY
$$



USA.gov is the U.S. government's official web portal to all federal, state and local government web resources and services.